Weather History for KONL - February, 2014

Change the Weather History Date:

Wednesday, February 12, 2014

  Actual Average Record
Temperature  
Mean Temperature 26 °F -  
Max Temperature 36 °F 35 °F 64 °F (1990)
Min Temperature 17 °F 14 °F -18 °F (1955)
Degree Days  
Heating Degree Days 39    
Moisture  
Dew Point 20 °F    
Average Humidity 73    
Maximum Humidity 87    
Minimum Humidity 60    
Precipitation  
Precipitation 0.00 in - - ()
Sea Level Pressure  
Sea Level Pressure 29.93 in    
Wind  
Wind Speed 12 mph (WSW)    
Max Wind Speed 23 mph    
Max Gust Speed 32 mph    
Visibility 9 miles    
Events Snow    
Averages and records for this station are not official NWS values.
T = Trace of Precipitation, MM = Missing Value Source: NWS Daily Summary

Daily Weather History Graph

Daily Weather History Graph

Search for Another Location

Airport or City:

Trip Planner

Search our weather history database for the weather conditions in past years. The results will help you decide how hot, cold, wet, or windy it might be!

Date:

Astronomy

Feb. 12, 2014 Rise Set
Actual Time 7:35 AM CST 6:03 PM CST
Civil Twilight 7:06 AM CST 6:32 PM CST
Nautical Twilight 6:33 AM CST 7:05 PM CST
Astronomical Twilight 6:00 AM CST 7:37 PM CST
Moon 4:17 PM CST (2/12) 5:54 AM CST (2/12)
Length of Visible Light 11h 25m
Length of Day
10h 27m
Waxing Gibbous, 95% of the Moon is Illuminated
Feb 12
Waxing Gibbous
Feb 14
Full
Feb 22
Last Quarter
Mar 1
New
Mar 8
First Quarter

Hourly Weather History & Observations

Time (CST) Temp. Windchill Dew Point Humidity Pressure Visibility Wind Dir Wind Speed Gust Speed Precip Events Conditions
12:15 AM 30.7 °F 20.9 °F 24.8 °F 79% 29.90 in 10.0 mi WSW 12.7 mph - N/A   Overcast
12:35 AM 31.6 °F 23.1 °F 23.9 °F 73% 29.90 in 10.0 mi SW 10.4 mph - N/A   Overcast
12:55 AM 31.1 °F 25.4 °F 23.5 °F 74% 29.90 in 7.0 mi West 5.8 mph - N/A   Mostly Cloudy
1:15 AM 30.4 °F - 23.2 °F 75% 29.90 in 7.0 mi Calm Calm - N/A   Scattered Clouds
1:35 AM 30.0 °F 26.5 °F 23.0 °F 75% 29.90 in 7.0 mi West 3.5 mph - N/A   Clear
1:55 AM 30.6 °F 25.8 °F 23.7 °F 76% 29.91 in 10.0 mi WNW 4.6 mph - N/A   Scattered Clouds
2:15 AM 29.3 °F 21.5 °F 23.5 °F 79% 29.93 in 7.0 mi West 8.1 mph - N/A   Mostly Cloudy
2:35 AM 31.3 °F 23.9 °F 25.7 °F 80% 29.94 in 10.0 mi NW 8.1 mph - N/A   Overcast
2:55 AM 31.8 °F 24.6 °F 26.4 °F 80% 29.95 in 10.0 mi NW 8.1 mph - N/A   Overcast
3:15 AM 32.0 °F 19.5 °F 27.3 °F 83% 29.96 in 10.0 mi NNW 21.9 mph 28.8 mph N/A   Overcast
3:35 AM 30.9 °F 19.4 °F 26.6 °F 84% 29.98 in 4.0 mi NNW 17.3 mph 27.6 mph N/A Snow Light Snow
3:55 AM 30.0 °F 17.2 °F 26.4 °F 86% 30.00 in 3.0 mi NNW 20.7 mph - N/A Snow Light Snow
4:15 AM 28.6 °F 15.0 °F 24.1 °F 83% 30.02 in 10.0 mi NNW 21.9 mph 31.1 mph N/A   Overcast
4:35 AM 27.5 °F 14.6 °F 23.7 °F 86% 30.03 in 2.0 mi NNW 18.4 mph 25.3 mph N/A Snow Light Snow
4:55 AM 27.0 °F 14.7 °F 23.5 °F 87% 30.04 in 2.5 mi North 16.1 mph - N/A Snow Light Snow
5:15 AM 26.6 °F 12.7 °F 23.0 °F 86% 30.06 in 7.0 mi NNW 20.7 mph - N/A   Overcast
5:35 AM 26.2 °F 13.0 °F 22.8 °F 87% 30.06 in 10.0 mi North 18.4 mph 26.5 mph N/A   Overcast
5:55 AM 25.0 °F 9.9 °F 21.2 °F 86% 30.08 in 10.0 mi NNW 23.0 mph 27.6 mph N/A   Overcast
6:15 AM 23.9 °F 9.1 °F 19.6 °F 84% 30.09 in 10.0 mi NNW 20.7 mph 28.8 mph N/A   Overcast
6:35 AM 22.5 °F 8.0 °F 18.3 °F 84% 30.09 in 10.0 mi NNW 18.4 mph 25.3 mph N/A   Overcast
6:55 AM 21.6 °F 8.2 °F 17.6 °F 85% 30.10 in 10.0 mi NNW 15.0 mph - N/A   Overcast
7:15 AM 20.3 °F 4.4 °F 15.6 °F 82% 30.12 in 10.0 mi NW 20.7 mph 27.6 mph N/A   Overcast
7:35 AM 19.2 °F 4.3 °F 14.7 °F 83% 30.13 in 10.0 mi NNW 17.3 mph 26.5 mph N/A   Overcast
7:55 AM 18.5 °F 5.5 °F 13.6 °F 81% 30.12 in 10.0 mi North 12.7 mph 20.7 mph N/A   Overcast
8:15 AM 18.3 °F 5.2 °F 13.1 °F 80% 30.13 in 10.0 mi NNW 12.7 mph - N/A   Overcast
8:35 AM 18.5 °F 2.9 °F 13.5 °F 81% 30.14 in 10.0 mi NNW 18.4 mph - N/A   Overcast
8:55 AM 17.6 °F 2.7 °F 11.3 °F 76% 30.14 in 10.0 mi NNW 16.1 mph 23.0 mph N/A   Mostly Cloudy
9:15 AM 17.2 °F 2.7 °F 11.3 °F 78% 30.14 in 10.0 mi NNW 15.0 mph - N/A   Mostly Cloudy
9:35 AM 17.6 °F 5.0 °F 11.3 °F 76% 30.13 in 10.0 mi NNW 11.5 mph - N/A   Scattered Clouds
9:55 AM 18.5 °F 7.5 °F 12.0 °F 76% 30.12 in 10.0 mi NNW 9.2 mph - N/A   Clear
10:15 AM 18.5 °F 9.3 °F 11.8 °F 75% 30.11 in 10.0 mi NNW 6.9 mph - N/A   Clear
10:35 AM 19.4 °F 10.4 °F 12.2 °F 74% 30.12 in 10.0 mi WNW 6.9 mph - N/A   Scattered Clouds
10:55 AM 20.1 °F 12.3 °F 13.1 °F 74% 30.13 in 10.0 mi WNW 5.8 mph - N/A   Scattered Clouds
11:15 AM 21.0 °F 10.6 °F 13.8 °F 74% 30.13 in 10.0 mi WNW 9.2 mph - N/A   Scattered Clouds
11:35 AM 21.9 °F 15.7 °F 14.0 °F 72% 30.10 in 10.0 mi WNW 4.6 mph - N/A   Scattered Clouds
11:55 AM 22.6 °F - 14.7 °F 72% 30.09 in 10.0 mi Calm Calm - N/A   Clear
12:15 PM 23.4 °F 18.9 °F 14.4 °F 68% 30.08 in 10.0 mi WNW 3.5 mph - N/A   Clear
12:35 PM 23.5 °F - 15.1 °F 70% 30.06 in 10.0 mi Calm Calm - N/A   Clear
12:55 PM 25.2 °F - 15.3 °F 66% 30.04 in 10.0 mi Calm Calm - N/A   Clear
1:15 PM 25.7 °F 20.1 °F 15.8 °F 66% 30.02 in 10.0 mi South 4.6 mph - N/A   Clear
1:35 PM 26.1 °F 21.9 °F 16.2 °F 66% 30.00 in 10.0 mi South 3.5 mph - N/A   Clear
1:55 PM 26.6 °F 19.1 °F 17.1 °F 67% 29.99 in 10.0 mi South 6.9 mph - N/A   Clear
2:15 PM 27.9 °F 20.6 °F 17.4 °F 65% 29.97 in 10.0 mi South 6.9 mph - N/A   Clear
2:35 PM 29.3 °F 20.8 °F 17.6 °F 62% 29.95 in 10.0 mi SSW 9.2 mph - N/A   Clear
2:55 PM 30.0 °F 21.7 °F 18.3 °F 62% 29.93 in 10.0 mi South 9.2 mph - N/A   Clear
3:15 PM 30.4 °F 21.5 °F 17.8 °F 60% 29.91 in 10.0 mi South 10.4 mph - N/A   Clear
3:35 PM 30.2 °F 20.2 °F 18.1 °F 61% 29.88 in 10.0 mi SSE 12.7 mph - N/A   Clear
3:55 PM 30.4 °F 20.5 °F 19.0 °F 63% 29.87 in 10.0 mi SSE 12.7 mph 16.1 mph N/A   Clear
4:15 PM 30.6 °F 20.7 °F 19.0 °F 62% 29.85 in 10.0 mi SSE 12.7 mph 17.3 mph N/A   Clear
4:35 PM 30.0 °F 20.0 °F 18.7 °F 63% 29.83 in 10.0 mi South 12.7 mph 21.9 mph N/A   Clear
4:55 PM 30.6 °F 19.8 °F 19.2 °F 63% 29.83 in 10.0 mi South 15.0 mph - N/A   Clear
5:15 PM 30.2 °F 20.8 °F 18.9 °F 63% 29.85 in 10.0 mi South 11.5 mph - N/A   Clear
5:35 PM 29.3 °F 20.2 °F 19.2 °F 66% 29.85 in 10.0 mi South 10.4 mph - N/A   Clear
5:55 PM 30.0 °F 19.5 °F 19.4 °F 65% 29.84 in 10.0 mi South 13.8 mph 17.3 mph N/A   Clear
6:15 PM 30.0 °F 20.0 °F 19.4 °F 65% 29.82 in 10.0 mi South 12.7 mph - N/A   Clear
6:35 PM 30.2 °F 20.2 °F 19.8 °F 65% 29.81 in 10.0 mi South 12.7 mph - N/A   Clear
6:55 PM 29.8 °F 19.3 °F 20.3 °F 68% 29.79 in 10.0 mi South 13.8 mph - N/A   Clear
7:15 PM 29.8 °F 20.3 °F 20.5 °F 68% 29.78 in 10.0 mi South 11.5 mph - N/A   Clear
7:35 PM 29.8 °F 20.3 °F 21.2 °F 70% 29.78 in 10.0 mi South 11.5 mph - N/A   Clear
7:55 PM 30.4 °F 21.0 °F 21.9 °F 71% 29.77 in 10.0 mi South 11.5 mph - N/A   Clear
8:15 PM 31.1 °F 20.9 °F 22.8 °F 71% 29.75 in 10.0 mi South 13.8 mph - N/A   Mostly Cloudy
8:35 PM 31.6 °F 22.6 °F 23.4 °F 71% 29.73 in 10.0 mi South 11.5 mph 17.3 mph N/A   Overcast
8:55 PM 32.0 °F 22.5 °F 23.7 °F 71% 29.72 in 10.0 mi South 12.7 mph - N/A   Mostly Cloudy
9:15 PM 32.0 °F 22.5 °F 24.3 °F 73% 29.71 in 10.0 mi South 12.7 mph - N/A   Overcast
9:35 PM 33.1 °F 22.6 °F 24.4 °F 71% 29.69 in 10.0 mi South 16.1 mph 21.9 mph N/A   Overcast
9:55 PM 33.8 °F 23.9 °F 24.3 °F 68% 29.68 in 10.0 mi SSW 15.0 mph 26.5 mph N/A   Overcast
10:15 PM 34.2 °F 23.0 °F 24.1 °F 67% 29.66 in 10.0 mi SSW 19.6 mph 32.2 mph N/A   Overcast
10:35 PM 34.7 °F 25.5 °F 23.9 °F 65% 29.66 in 10.0 mi SSW 13.8 mph 20.7 mph N/A   Overcast
10:55 PM 35.1 °F 26.4 °F 23.9 °F 64% 29.64 in 10.0 mi SSW 12.7 mph 21.9 mph N/A   Mostly Cloudy
11:15 PM 35.2 °F 26.6 °F 23.9 °F 63% 29.64 in 10.0 mi SSW 12.7 mph 21.9 mph N/A   Mostly Cloudy
11:35 PM 35.8 °F 26.1 °F 24.8 °F 64% 29.62 in 10.0 mi SW 16.1 mph 19.6 mph N/A   Scattered Clouds
11:55 PM 36.5 °F 27.8 °F 25.5 °F 64% 29.62 in 10.0 mi SW 13.8 mph 19.6 mph N/A   Clear